Home   Weather   Denare Beach   Past weeks

Flag for Canada Past Weather in Denare Beach, Saskatchewan, Canada — Yesterday and Last 2 Weeks

41 °F


Feels Like: 35 °F
Forecast: 35 / 41 °F
Wind: 9 mph from West

Location: The Pas

Current Time: Oct 27, 2016 at 12:23:34 AM

Latest Report: Oct 27, 2016 at 12:00 AM

Visibility: 4 mi

Pressure: 29.96 "Hg

Humidity: 93%

Dew Point: 39 °F

Location of Denare BeachLocation

Past Weather in Denare Beach — Graph


Denare Beach Temperature Yesterday

Maximum temperature yesterday: 41 °F (at 12:00 AM)
Minimum temperature yesterday: 39 °F (at 6:00 AM)
Average temperature yesterday: 40 °F

High & Low Weather Summary for the Past Weeks

High46 °F (Oct 22, 3:00 PM)100% (Oct 17, 8:00 AM)30.45 "Hg (Oct 17, 8:00 AM)
Low23 °F (Oct 13, 6:00 AM)56% (Oct 13, 3:00 PM)29.21 "Hg (Oct 17, 8:00 AM)
Average34 °F85%29.96 "Hg
* Reported Oct 11 11:00 PM — Oct 26 11:00 PM, Denare Beach, Weather by CustomWeather, © 2016

Note: Actual official high and low records may vary slightly from our data, if they occured in-between our weather recording intervals... More about our weather records


Denare Beach Weather History for the Previous 24 Hours

Scroll right to see more
Time TempWeatherWind HumidityBarometerVisibility
11:00 PM
Wed, Oct 26
41 °FFog.8 mph93%29.94 "Hg4 mi
10:00 PM41 °FFog.9 mph100%29.92 "Hg1 mi
9:00 PM41 °FDrizzle. Fog.8 mph100%29.92 "Hg1 mi
8:00 PM41 °FDrizzle. Fog.3 mph100%29.92 "Hg1 mi
7:00 PM41 °FDrizzle. Fog.5 mph100%29.92 "Hg1 mi
6:00 PM41 °FDrizzle. Fog.3 mph93%29.91 "Hg2 mi
5:00 PM41 °FDrizzle. Fog.7 mph93%29.90 "Hg2 mi
4:00 PM41 °FDrizzle. Fog.7 mph93%29.90 "Hg1 mi
3:00 PM41 °FDrizzle. Fog.9 mph93%29.90 "Hg2 mi
2:00 PM39 °FDrizzle. Low clouds.13 mph100%29.93 "Hg2 mi
1:00 PM39 °FDrizzle. Fog.12 mph93%29.95 "Hg2 mi
12:00 PM39 °FDrizzle. Fog.15 mph93%29.98 "Hg3 mi
11:00 AM39 °FLight rain. Fog.14 mph93%29.99 "Hg4 mi
10:00 AM39 °FDrizzle. Fog.14 mph93%30.01 "Hg4 mi
9:00 AM39 °FDrizzle. Fog.16 mph93%30.03 "Hg4 mi
8:00 AM39 °FLight rain. Mostly cloudy.13 mph93%30.05 "Hg8 mi
7:00 AM39 °FDrizzle. Mostly cloudy.13 mph93%30.07 "Hg8 mi
6:00 AM39 °FLight rain. Overcast.14 mph93%30.10 "Hg10 mi
5:00 AM41 °FLight rain. Overcast.15 mph87%30.13 "Hg8 mi
4:00 AM41 °FLight rain. Overcast.14 mph93%30.15 "Hg8 mi
3:00 AM41 °FLight rain. Overcast.13 mph87%30.17 "Hg8 mi
2:00 AM41 °FLight rain. Overcast.12 mph87%30.18 "Hg10 mi
1:00 AM41 °FLight rain. Overcast.9 mph87%30.20 "Hg12 mi
12:00 AM41 °FLight rain. Overcast.10 mph87%30.22 "Hg12 mi
Weather by CustomWeather, © 2016

See weather overviewHow to use our weather pages